This is the latest recevied weather packets stored in our database for station/object W7TJC. If no packets are shown the sender has not sent any weather packets the latest 10 day(s).
| Time | Temp. | Humidity | Pressure | Rain* | Wind** | Luminosity | Snow |
|---|---|---|---|---|---|---|---|
| 1777529641 | 10.56° C | 83% | 1023.2 hPa | 0 mm | - | 0 W/m² | - |
| 1777529338 | 10.56° C | 82% | 1023.2 hPa | 0 mm | - | 0 W/m² | - |
| 1777529034 | 10.56° C | 82% | 1023.2 hPa | 0 mm | - | 0 W/m² | - |
| 1777528729 | 11.11° C | 81% | 1023.1 hPa | 0 mm | - | 0 W/m² | - |
| 1777528427 | 10.56° C | 82% | 1023.4 hPa | 0 mm | - | 0 W/m² | - |
| 1777528125 | 10.56° C | 83% | 1023.3 hPa | 0 mm | - | 0 W/m² | - |
| 1777527822 | 10.56° C | 83% | 1023.4 hPa | 0 mm | - | 0 W/m² | - |
| 1777527518 | 10.56° C | 83% | 1023.3 hPa | 0 mm | - | 0 W/m² | - |
| 1777527214 | 11.11° C | 82% | 1023.5 hPa | 0 mm | - | 0 W/m² | - |
| 1777526909 | 11.67° C | 80% | 1023.5 hPa | 0 mm | - | 0 W/m² | - |
| 1777526604 | 11.11° C | 81% | 1023.5 hPa | 0 mm | - | 0 W/m² | - |
| 1777526298 | 11.11° C | 82% | 1023.4 hPa | 0 mm | - | 0 W/m² | - |
| 1777525995 | 11.11° C | 82% | 1023.5 hPa | 0 mm | - | 0 W/m² | - |
| 1777525693 | 11.11° C | 82% | 1023.3 hPa | 0 mm | - | 0 W/m² | - |
| 1777525390 | 11.67° C | 81% | 1023.4 hPa | 0 mm | - | 0 W/m² | - |
| 1777525085 | 11.67° C | 80% | 1023.5 hPa | 0 mm | - | 0 W/m² | - |
| 1777524782 | 11.67° C | 80% | 1023.4 hPa | 0 mm | - | 0 W/m² | - |
| 1777524481 | 11.67° C | 80% | 1023.7 hPa | 0 mm | - | 0 W/m² | - |
| 1777524177 | 11.67° C | 80% | 1023.2 hPa | 0 mm | - | 0 W/m² | - |
| 1777523873 | 12.22° C | 79% | 1023.5 hPa | 0 mm | - | 0 W/m² | - |
| 1777523570 | 12.78° C | 78% | 1023.4 hPa | 0 mm | - | 0 W/m² | - |
| 1777523266 | 12.78° C | 74% | 1023.3 hPa | 0 mm | - | 0 W/m² | - |
| 1777522961 | 13.33° C | 74% | 1023.3 hPa | 0 mm | - | 0 W/m² | - |
| 1777522659 | 13.33° C | 72% | 1023.3 hPa | 0 mm | - | 0 W/m² | - |
| 1777522356 | 13.33° C | 71% | 1023.2 hPa | 0 mm | - | 0 W/m² | - |
* Rain latest hour (hover to see other rain measurements)
** Current wind speed in m/s (hover to see current wind gust speed)